| time (UTC) | temp F | wind direction | speed MPH | gust MPH | rain 1hr in | rain 24hr in | rain mn in | humidity % | barometer mb |
| 20260508192048 | 70 | 205 | 2.0 | 9.0 | 0.00 | 0.49 | 0.01 | 34 | 1015.6 |
| 20260508191555 | 70 | 206 | 1.0 | 9.0 | 0.00 | 0.49 | 0.01 | 41 | 1015.8 |
| 20260508191045 | 69 | 105 | 3.0 | 6.0 | 0.00 | 0.49 | 0.01 | 36 | 1015.9 |
| 20260508190547 | 69 | 337 | 1.0 | 6.0 | 0.00 | 0.49 | 0.01 | 35 | 1015.8 |
| 20260508190050 | 69 | 152 | 2.0 | 6.0 | 0.00 | 0.49 | 0.01 | 33 | 1015.8 |
| 20260508185550 | 69 | 108 | 2.0 | 5.0 | 0.00 | 0.49 | 0.01 | 37 | 1016.0 |
| 20260508185047 | 69 | 0 | 1.0 | 9.0 | 0.00 | 0.49 | 0.01 | 42 | 1015.9 |
| 20260508184600 | 69 | 194 | 2.0 | 9.0 | 0.00 | 0.49 | 0.01 | 39 | 1016.0 |
| 20260508184048 | 69 | 148 | 3.0 | 9.0 | 0.00 | 0.49 | 0.01 | 40 | 1016.0 |
| 20260508183546 | 69 | 155 | 2.0 | 6.0 | 0.00 | 0.49 | 0.01 | 36 | 1016.0 |
| 20260508183055 | 69 | 38 | 1.0 | 6.0 | 0.00 | 0.49 | 0.01 | 38 | 1016.1 |
| 20260508182547 | 69 | 89 | 2.0 | 6.0 | 0.00 | 0.49 | 0.01 | 36 | 1016.1 |
| 20260508182048 | 69 | 81 | 1.0 | 7.0 | 0.00 | 0.49 | 0.01 | 36 | 1016.3 |
| 20260508181559 | 68 | 108 | 3.0 | 7.0 | 0.00 | 0.49 | 0.01 | 35 | 1016.3 |
| 20260508181047 | 68 | 147 | 1.0 | 6.0 | 0.00 | 0.49 | 0.01 | 34 | 1016.4 |
| 20260508180547 | 68 | 107 | 2.0 | 7.0 | 0.00 | 0.49 | 0.01 | 35 | 1016.6 |
| 20260508180053 | 68 | 157 | 2.0 | 7.0 | 0.00 | 0.49 | 0.01 | 35 | 1016.6 |
| 20260508175547 | 68 | 106 | 3.0 | 6.0 | 0.00 | 0.49 | 0.01 | 35 | 1016.7 |
| 20260508175045 | 68 | 299 | 2.0 | 5.0 | 0.00 | 0.49 | 0.01 | 32 | 1016.8 |
| 20260508174554 | 68 | 101 | 1.0 | 6.0 | 0.00 | 0.49 | 0.01 | 34 | 1016.8 |
| 20260508174049 | 67 | 90 | 3.0 | 10.0 | 0.00 | 0.49 | 0.01 | 35 | 1016.9 |
| 20260508173546 | 67 | 132 | 2.0 | 10.0 | 0.00 | 0.49 | 0.01 | 34 | 1017.0 |
| 20260508173051 | 67 | 165 | 3.0 | 9.0 | 0.00 | 0.49 | 0.01 | 34 | 1017.0 |
| 20260508172546 | 67 | 107 | 3.0 | 9.0 | 0.00 | 0.49 | 0.01 | 36 | 1017.0 |
| 20260508172045 | 66 | 175 | 2.0 | 7.0 | 0.00 | 0.49 | 0.01 | 37 | 1017.1 |
| 20260508171551 | 66 | 92 | 1.0 | 5.0 | 0.00 | 0.49 | 0.01 | 36 | 1017.1 |
| 20260508171045 | 66 | 261 | 2.0 | 4.0 | 0.00 | 0.49 | 0.01 | 34 | 1017.2 |
| 20260508170548 | 66 | 173 | 1.0 | 5.0 | 0.00 | 0.49 | 0.01 | 32 | 1017.1 |
| 20260508170049 | 66 | 171 | 3.0 | 7.0 | 0.00 | 0.49 | 0.01 | 32 | 1017.1 |
| 20260508165546 | 66 | 98 | 2.0 | 7.0 | 0.00 | 0.49 | 0.01 | 36 | 1017.2 |
| 20260508165048 | 65 | 204 | 2.0 | 6.0 | 0.00 | 0.49 | 0.01 | 33 | 1017.3 |
| 20260508164553 | 66 | 96 | 2.0 | 8.0 | 0.00 | 0.49 | 0.01 | 34 | 1017.4 |
| 20260508164048 | 65 | 243 | 3.0 | 8.0 | 0.00 | 0.49 | 0.01 | 34 | 1017.5 |
| 20260508163547 | 65 | 57 | 2.0 | 6.0 | 0.00 | 0.49 | 0.01 | 35 | 1017.6 |
| 20260508163054 | 66 | 267 | 1.0 | 7.0 | 0.00 | 0.49 | 0.01 | 35 | 1017.8 |
| 20260508162547 | 66 | 122 | 2.0 | 7.0 | 0.00 | 0.49 | 0.01 | 37 | 1017.9 |
| 20260508162049 | 66 | 184 | 1.0 | 5.0 | 0.00 | 0.49 | 0.01 | 39 | 1017.9 |
| 20260508161555 | 65 | 0 | 1.0 | 6.0 | 0.00 | 0.49 | 0.01 | 39 | 1018.0 |
| 20260508161047 | 65 | 229 | 1.0 | 7.0 | 0.00 | 0.49 | 0.01 | 40 | 1018.1 |
| 20260508160549 | 65 | 69 | 3.0 | 7.0 | 0.00 | 0.49 | 0.01 | 36 | 1018.1 |
| 20260508160058 | 65 | 226 | 1.0 | 4.0 | 0.00 | 0.49 | 0.01 | 39 | 1018.2 |
| 20260508155545 | 64 | 86 | 2.0 | 8.0 | 0.00 | 0.49 | 0.01 | 37 | 1018.2 |
| 20260508155045 | 65 | 80 | 3.0 | 8.0 | 0.00 | 0.49 | 0.01 | 42 | 1018.2 |
| 20260508154549 | 65 | 89 | 1.0 | 4.0 | 0.00 | 0.49 | 0.01 | 39 | 1018.3 |
| 20260508154045 | 64 | 153 | 1.0 | 3.0 | 0.00 | 0.49 | 0.01 | 42 | 1018.4 |
| 20260508153545 | 63 | 163 | 1.0 | 3.0 | 0.00 | 0.49 | 0.01 | 43 | 1018.5 |
| 20260508153056 | 63 | 92 | 1.0 | 5.0 | 0.00 | 0.49 | 0.01 | 43 | 1018.5 |
| 20260508152547 | 63 | 202 | 1.0 | 5.0 | 0.00 | 0.49 | 0.01 | 49 | 1018.5 |
| 20260508152048 | 63 | 309 | 1.0 | 3.0 | 0.00 | 0.49 | 0.01 | 45 | 1018.5 |
| 20260508151554 | 63 | 0 | 1.0 | 3.0 | 0.00 | 0.49 | 0.01 | 45 | 1018.7 |
| 20260508151046 | 62 | 327 | 1.0 | 6.0 | 0.00 | 0.49 | 0.01 | 44 | 1018.6 |
| 20260508150545 | 62 | 265 | 2.0 | 6.0 | 0.00 | 0.49 | 0.01 | 42 | 1018.6 |
| 20260508150051 | 62 | 171 | 1.0 | 3.0 | 0.00 | 0.49 | 0.01 | 47 | 1018.7 |
| 20260508145547 | 62 | 194 | 1.0 | 4.0 | 0.00 | 0.51 | 0.01 | 46 | 1018.7 |
| 20260508145047 | 62 | 147 | 0.0 | 4.0 | 0.00 | 0.51 | 0.01 | 47 | 1018.6 |
| 20260508144555 | 61 | 342 | 2.0 | 4.0 | 0.00 | 0.51 | 0.01 | 48 | 1018.7 |
| 20260508144047 | 61 | 128 | 0.0 | 4.0 | 0.00 | 0.51 | 0.01 | 52 | 1018.6 |
| 20260508143547 | 60 | 253 | 1.0 | 8.0 | 0.00 | 0.51 | 0.01 | 55 | 1018.6 |
| 20260508143101 | 60 | 189 | 0.0 | 8.0 | 0.00 | 0.51 | 0.01 | 57 | 1018.5 |
| 20260508142546 | 60 | 113 | 1.0 | 7.0 | 0.00 | 0.51 | 0.01 | 60 | 1018.5 |
| 20260508142047 | 60 | 86 | 0.0 | 4.0 | 0.00 | 0.51 | 0.01 | 61 | 1018.5 |
| 20260508141612 | 60 | 153 | 1.0 | 6.0 | 0.00 | 0.51 | 0.01 | 59 | 1018.5 |
| 20260508141048 | 59 | 277 | 1.0 | 6.0 | 0.00 | 0.51 | 0.01 | 58 | 1018.5 |
| 20260508140548 | 59 | 0 | 0.0 | 5.0 | 0.00 | 0.51 | 0.01 | 62 | 1018.4 |
| 20260508140054 | 58 | 0 | 1.0 | 5.0 | 0.00 | 0.51 | 0.01 | 70 | 1018.4 |
| 20260508135546 | 58 | 0 | 0.0 | 4.0 | 0.00 | 0.58 | 0.01 | 72 | 1018.4 |
| 20260508135045 | 57 | 113 | 1.0 | 4.0 | 0.00 | 0.58 | 0.01 | 66 | 1018.3 |
| 20260508134617 | 56 | 145 | 1.0 | 4.0 | 0.00 | 0.58 | 0.01 | 76 | 1018.3 |
| 20260508134045 | 56 | 0 | 1.0 | 4.0 | 0.00 | 0.58 | 0.01 | 69 | 1018.3 |
| 20260508133546 | 56 | 0 | 0.0 | 4.0 | 0.00 | 0.58 | 0.01 | 78 | 1018.3 |
| 20260508133101 | 55 | 133 | 0.0 | 2.0 | 0.00 | 0.58 | 0.01 | 75 | 1018.2 |
| 20260508132546 | 55 | 0 | 0.0 | 3.0 | 0.00 | 0.58 | 0.01 | 81 | 1018.2 |
| 20260508132048 | 54 | 0 | 0.0 | 3.0 | 0.00 | 0.58 | 0.01 | 82 | 1018.3 |
| 20260508131555 | 54 | 0 | 0.0 | 1.0 | 0.00 | 0.58 | 0.01 | 89 | 1018.1 |
| 20260508131045 | 54 | 0 | 0.0 | 1.0 | 0.00 | 0.58 | 0.01 | 92 | 1018.1 |
| 20260508130547 | 53 | 180 | 0.0 | 1.0 | 0.00 | 0.58 | 0.01 | 90 | 1018.1 |
| 20260508130053 | 54 | 0 | 0.0 | 1.0 | 0.00 | 0.58 | 0.01 | 92 | 1018.1 |
| 20260508125548 | 53 | 0 | 0.0 | 1.0 | 0.00 | 0.71 | 0.01 | 92 | 1018.1 |
| 20260508125048 | 53 | 0 | 0.0 | 1.0 | 0.00 | 0.71 | 0.01 | 94 | 1018.0 |
| 20260508124601 | 52 | 0 | 0.0 | 1.0 | 0.00 | 0.71 | 0.01 | 94 | 1018.0 |
| 20260508124046 | 52 | 139 | 0.0 | 0.0 | 0.00 | 0.71 | 0.01 | 94 | 1018.0 |
| 20260508123548 | 52 | 0 | 0.0 | 0.0 | 0.00 | 0.71 | 0.01 | 94 | 1018.0 |
| 20260508123055 | 52 | 0 | 0.0 | 0.0 | 0.00 | 0.71 | 0.01 | 95 | 1017.9 |
| 20260508122547 | 51 | 0 | 0.0 | 0.0 | 0.00 | 0.71 | 0.01 | 94 | 1017.9 |
| 20260508122047 | 52 | 0 | 0.0 | 0.0 | 0.00 | 0.71 | 0.01 | 96 | 1017.9 |
| 20260508121549 | 51 | 0 | 0.0 | 0.0 | 0.00 | 0.71 | 0.01 | 96 | 1017.9 |
| 20260508121044 | 51 | 0 | 0.0 | 0.0 | 0.00 | 0.71 | 0.01 | 96 | 1017.8 |
| 20260508120550 | 51 | 0 | 0.0 | 0.0 | 0.00 | 0.71 | 0.01 | 96 | 1017.7 |
| 20260508120053 | 50 | 0 | 0.0 | 0.0 | 0.00 | 0.71 | 0.01 | 96 | 1017.6 |
| 20260508115547 | 48 | 0 | 0.0 | 0.0 | 0.00 | 0.73 | 0.01 | 95 | 1017.6 |
| 20260508115046 | 48 | 0 | 0.0 | 0.0 | 0.00 | 0.73 | 0.01 | 95 | 1017.6 |
| 20260508114552 | 48 | 0 | 0.0 | 0.0 | 0.00 | 0.73 | 0.01 | 96 | 1017.5 |
| 20260508114046 | 47 | 0 | 0.0 | 0.0 | 0.00 | 0.73 | 0.01 | 96 | 1017.4 |
| 20260508113548 | 47 | 0 | 0.0 | 0.0 | 0.00 | 0.73 | 0.01 | 97 | 1017.4 |
| 20260508113104 | 47 | 0 | 0.0 | 0.0 | 0.00 | 0.73 | 0.01 | 97 | 1017.3 |
| 20260508112546 | 45 | 0 | 0.0 | 0.0 | 0.00 | 0.73 | 0.01 | 97 | 1017.3 |
| 20260508112045 | 43 | 0 | 0.0 | 0.0 | 0.00 | 0.73 | 0.01 | 97 | 1017.2 |
| 20260508111601 | 42 | 0 | 0.0 | 0.0 | 0.00 | 0.73 | 0.01 | 97 | 1017.1 |
| 20260508111046 | 41 | 0 | 0.0 | 0.0 | 0.00 | 0.73 | 0.01 | 97 | 1017.0 |
| 20260508110548 | 41 | 0 | 0.0 | 0.0 | 0.00 | 0.73 | 0.01 | 97 | 1016.8 |
| 20260508110056 | 41 | 0 | 0.0 | 0.0 | 0.00 | 0.73 | 0.01 | 97 | 1016.7 |
| 20260508105547 | 41 | 0 | 0.0 | 0.0 | 0.00 | 0.73 | 0.01 | 97 | 1016.7 |
| 20260508105047 | 41 | 0 | 0.0 | 0.0 | 0.00 | 0.73 | 0.01 | 97 | 1016.7 |
| 20260508104552 | 41 | 0 | 0.0 | 0.0 | 0.00 | 0.73 | 0.01 | 97 | 1016.6 |
| 20260508104045 | 41 | 0 | 0.0 | 0.0 | 0.00 | 0.73 | 0.01 | 97 | 1016.6 |
| 20260508103547 | 41 | 0 | 0.0 | 0.0 | 0.01 | 0.73 | 0.01 | 97 | 1016.4 |
| 20260508103051 | 41 | 0 | 0.0 | 0.0 | 0.01 | 0.73 | 0.01 | 97 | 1016.4 |
| 20260508102548 | 41 | 0 | 0.0 | 0.0 | 0.01 | 0.73 | 0.01 | 97 | 1016.4 |
| 20260508102047 | 41 | 0 | 0.0 | 0.0 | 0.01 | 0.73 | 0.01 | 97 | 1016.3 |
| 20260508101557 | 41 | 0 | 0.0 | 0.0 | 0.01 | 0.73 | 0.01 | 97 | 1016.3 |
| 20260508101046 | 42 | 0 | 0.0 | 0.0 | 0.01 | 0.73 | 0.01 | 97 | 1016.3 |
| 20260508100548 | 41 | 0 | 0.0 | 0.0 | 0.01 | 0.73 | 0.01 | 97 | 1016.2 |
| 20260508100056 | 41 | 0 | 0.0 | 0.0 | 0.01 | 0.73 | 0.01 | 97 | 1016.1 |
| 20260508095546 | 42 | 0 | 0.0 | 0.0 | 0.01 | 0.74 | 0.01 | 97 | 1016.1 |
| 20260508095047 | 42 | 0 | 0.0 | 0.0 | 0.01 | 0.74 | 0.01 | 97 | 1016.0 |
| 20260508094555 | 42 | 0 | 0.0 | 0.0 | 0.01 | 0.74 | 0.01 | 97 | 1015.8 |
| 20260508094048 | 42 | 0 | 0.0 | 0.0 | 0.00 | 0.73 | 0.00 | 97 | 1015.7 |
| 20260508093548 | 42 | 0 | 0.0 | 0.0 | 0.00 | 0.73 | 0.00 | 97 | 1015.8 |
| 20260508093057 | 42 | 0 | 0.0 | 0.0 | 0.00 | 0.73 | 0.00 | 97 | 1015.8 |
| 20260508092547 | 42 | 0 | 0.0 | 0.0 | 0.00 | 0.73 | 0.00 | 97 | 1015.7 |
| 20260508092047 | 42 | 0 | 0.0 | 0.0 | 0.00 | 0.73 | 0.00 | 97 | 1015.6 |
| 20260508091553 | 42 | 0 | 0.0 | 0.0 | 0.00 | 0.73 | 0.00 | 97 | 1015.8 |
| 20260508091050 | 42 | 0 | 0.0 | 0.0 | 0.00 | 0.73 | 0.00 | 96 | 1015.8 |
| 20260508090546 | 43 | 0 | 0.0 | 0.0 | 0.00 | 0.73 | 0.00 | 97 | 1015.7 |
| 20260508090059 | 43 | 0 | 0.0 | 0.0 | 0.00 | 0.73 | 0.00 | 97 | 1015.5 |
| 20260508085548 | 43 | 0 | 0.0 | 0.0 | 0.00 | 0.73 | 0.00 | 97 | 1015.7 |
| 20260508085047 | 43 | 0 | 0.0 | 0.0 | 0.00 | 0.73 | 0.00 | 97 | 1015.5 |
| 20260508084553 | 43 | 0 | 0.0 | 0.0 | 0.00 | 0.73 | 0.00 | 97 | 1015.5 |
| 20260508084048 | 43 | 0 | 0.0 | 0.0 | 0.00 | 0.73 | 0.00 | 96 | 1015.3 |
| 20260508083547 | 43 | 0 | 0.0 | 0.0 | 0.00 | 0.73 | 0.00 | 96 | 1015.3 |
| 20260508083109 | 43 | 0 | 0.0 | 0.0 | 0.00 | 0.73 | 0.00 | 97 | 1015.3 |
| 20260508082552 | 44 | 0 | 0.0 | 0.0 | 0.00 | 0.73 | 0.00 | 97 | 1015.2 |
| 20260508082047 | 44 | 0 | 0.0 | 0.0 | 0.00 | 0.73 | 0.00 | 97 | 1015.1 |
| 20260508081551 | 44 | 0 | 0.0 | 0.0 | 0.00 | 0.73 | 0.00 | 97 | 1015.1 |
| 20260508081050 | 44 | 0 | 0.0 | 0.0 | 0.00 | 0.73 | 0.00 | 97 | 1015.1 |
| 20260508080548 | 44 | 0 | 0.0 | 0.0 | 0.00 | 0.73 | 0.00 | 97 | 1015.0 |
| 20260508080053 | 44 | 0 | 0.0 | 0.0 | 0.00 | 0.73 | 0.00 | 97 | 1015.1 |
| 20260508075548 | 44 | 0 | 0.0 | 0.0 | 0.00 | 0.75 | 0.00 | 97 | 1015.1 |
| 20260508075047 | 44 | 0 | 0.0 | 0.0 | 0.00 | 0.75 | 0.00 | 97 | 1015.1 |
| 20260508074555 | 44 | 0 | 0.0 | 0.0 | 0.00 | 0.75 | 0.00 | 97 | 1015.1 |
| 20260508074047 | 44 | 0 | 0.0 | 0.0 | 0.00 | 0.75 | 0.00 | 97 | 1015.1 |
| 20260508073547 | 44 | 0 | 0.0 | 0.0 | 0.00 | 0.75 | 0.00 | 96 | 1015.0 |
| 20260508073055 | 44 | 0 | 0.0 | 0.0 | 0.00 | 0.75 | 0.00 | 96 | 1015.0 |
| 20260508072546 | 45 | 0 | 0.0 | 0.0 | 0.00 | 0.75 | 0.00 | 97 | 1014.9 |
| 20260508072045 | 45 | 0 | 0.0 | 0.0 | 0.00 | 0.75 | 0.00 | 97 | 1014.8 |
| 20260508071555 | 45 | 0 | 0.0 | 0.0 | 0.00 | 0.75 | 0.00 | 97 | 1014.8 |
| 20260508071048 | 45 | 0 | 0.0 | 0.0 | 0.00 | 0.75 | 0.00 | 97 | 1014.6 |
| 20260508070549 | 45 | 0 | 0.0 | 0.0 | 0.00 | 0.75 | 0.00 | 97 | 1014.6 |
| 20260508070054 | 45 | 0 | 0.0 | 0.0 | 0.00 | 0.75 | 0.00 | 96 | 1014.7 |
| 20260508065546 | 45 | 0 | 0.0 | 0.0 | 0.00 | 0.75 | 0.00 | 97 | 1014.6 |
| 20260508065046 | 45 | 0 | 0.0 | 0.0 | 0.00 | 0.75 | 0.00 | 97 | 1014.6 |
| 20260508064556 | 45 | 0 | 0.0 | 0.0 | 0.00 | 0.75 | 0.00 | 96 | 1014.6 |
| 20260508064047 | 45 | 0 | 0.0 | 0.0 | 0.00 | 0.75 | 0.00 | 96 | 1014.6 |
| 20260508063547 | 46 | 0 | 0.0 | 0.0 | 0.00 | 0.75 | 0.00 | 96 | 1014.6 |
| 20260508063049 | 46 | 0 | 0.0 | 0.0 | 0.00 | 0.75 | 0.00 | 97 | 1014.6 |
| 20260508062547 | 46 | 0 | 0.0 | 0.0 | 0.00 | 0.75 | 0.00 | 97 | 1014.6 |
| 20260508062047 | 46 | 0 | 0.0 | 0.0 | 0.00 | 0.75 | 0.00 | 96 | 1014.7 |
| 20260508061552 | 46 | 0 | 0.0 | 0.0 | 0.00 | 0.75 | 0.00 | 96 | 1014.6 |
| 20260508061050 | 46 | 0 | 0.0 | 0.0 | 0.00 | 0.75 | 0.00 | 96 | 1014.7 |
| 20260508060546 | 46 | 0 | 0.0 | 0.0 | 0.00 | 0.75 | 0.00 | 96 | 1014.6 |
| 20260508060053 | 46 | 0 | 0.0 | 0.0 | 0.00 | 0.75 | 0.00 | 96 | 1014.6 |
| 20260508055547 | 46 | 0 | 0.0 | 0.0 | 0.00 | 0.81 | 0.00 | 96 | 1014.5 |
| 20260508055047 | 46 | 0 | 0.0 | 0.0 | 0.00 | 0.81 | 0.00 | 96 | 1014.5 |
| 20260508054555 | 46 | 0 | 0.0 | 0.0 | 0.00 | 0.81 | 0.00 | 96 | 1014.6 |
| 20260508054049 | 46 | 0 | 0.0 | 0.0 | 0.00 | 0.81 | 0.00 | 96 | 1014.5 |
| 20260508053548 | 46 | 0 | 0.0 | 0.0 | 0.00 | 0.81 | 0.00 | 96 | 1014.6 |
| 20260508053052 | 46 | 0 | 0.0 | 0.0 | 0.00 | 0.81 | 0.00 | 96 | 1014.6 |
| 20260508052548 | 47 | 0 | 0.0 | 0.0 | 0.00 | 0.81 | 0.00 | 96 | 1014.5 |
| 20260508052045 | 47 | 0 | 0.0 | 0.0 | 0.00 | 0.81 | 0.00 | 96 | 1014.5 |
| 20260508051554 | 47 | 0 | 0.0 | 0.0 | 0.00 | 0.81 | 0.00 | 96 | 1014.5 |
| 20260508051049 | 47 | 0 | 0.0 | 0.0 | 0.00 | 0.81 | 0.00 | 96 | 1014.5 |
| 20260508050547 | 47 | 0 | 0.0 | 0.0 | 0.00 | 0.81 | 0.00 | 96 | 1014.5 |
| 20260508050050 | 47 | 0 | 0.0 | 0.0 | 0.00 | 0.81 | 0.00 | 96 | 1014.4 |
| 20260508045547 | 47 | 0 | 0.0 | 0.0 | 0.00 | 0.81 | 0.00 | 96 | 1014.4 |
| 20260508045049 | 47 | 0 | 0.0 | 0.0 | 0.00 | 0.81 | 0.00 | 96 | 1014.5 |
| 20260508044558 | 47 | 0 | 0.0 | 0.0 | 0.00 | 0.81 | 0.00 | 96 | 1014.4 |
| 20260508044048 | 47 | 0 | 0.0 | 0.0 | 0.00 | 0.81 | 0.00 | 96 | 1014.3 |
| 20260508043545 | 47 | 0 | 0.0 | 0.0 | 0.00 | 0.81 | 0.00 | 96 | 1014.3 |
| 20260508043106 | 47 | 0 | 0.0 | 0.0 | 0.00 | 0.81 | 0.00 | 96 | 1014.4 |
| 20260508042546 | 48 | 0 | 0.0 | 0.0 | 0.00 | 0.81 | 0.00 | 96 | 1014.3 |
| 20260508042045 | 48 | 0 | 0.0 | 0.0 | 0.00 | 0.81 | 0.00 | 96 | 1014.2 |
| 20260508041559 | 48 | 0 | 0.0 | 0.0 | 0.00 | 0.81 | 0.00 | 96 | 1014.2 |
| 20260508041047 | 48 | 0 | 0.0 | 0.0 | 0.00 | 0.81 | 0.00 | 96 | 1014.1 |
| 20260508040549 | 48 | 0 | 0.0 | 0.0 | 0.00 | 0.81 | 0.00 | 96 | 1014.2 |
| 20260508040056 | 48 | 0 | 0.0 | 0.0 | 0.00 | 0.81 | 0.00 | 96 | 1014.1 |
| 20260508035547 | 48 | 0 | 0.0 | 0.0 | 0.00 | 0.87 | 0.81 | 96 | 1014.2 |
| 20260508035048 | 48 | 0 | 0.0 | 0.0 | 0.00 | 0.87 | 0.81 | 96 | 1014.1 |
| 20260508034553 | 48 | 0 | 0.0 | 0.0 | 0.00 | 0.87 | 0.81 | 96 | 1014.1 |
| 20260508034046 | 48 | 0 | 0.0 | 0.0 | 0.00 | 0.87 | 0.81 | 96 | 1014.0 |
| 20260508033546 | 48 | 0 | 0.0 | 0.0 | 0.00 | 0.87 | 0.81 | 95 | 1014.0 |
| 20260508033051 | 49 | 0 | 0.0 | 0.0 | 0.00 | 0.87 | 0.81 | 95 | 1014.1 |
| 20260508032549 | 49 | 0 | 0.0 | 0.0 | 0.00 | 0.87 | 0.81 | 95 | 1014.1 |
| 20260508032050 | 49 | 0 | 0.0 | 0.0 | 0.00 | 0.87 | 0.81 | 95 | 1014.1 |
| 20260508031551 | 49 | 0 | 0.0 | 0.0 | 0.00 | 0.87 | 0.81 | 95 | 1013.9 |
| 20260508031047 | 49 | 0 | 0.0 | 0.0 | 0.00 | 0.87 | 0.81 | 95 | 1013.7 |
| 20260508030547 | 49 | 0 | 0.0 | 0.0 | 0.00 | 0.87 | 0.81 | 95 | 1013.9 |
| 20260508030049 | 49 | 0 | 0.0 | 0.0 | 0.00 | 0.87 | 0.81 | 95 | 1013.6 |
| 20260508025547 | 50 | 0 | 0.0 | 0.0 | 0.00 | 0.89 | 0.81 | 95 | 1013.9 |
| 20260508025048 | 50 | 0 | 0.0 | 0.0 | 0.00 | 0.89 | 0.81 | 95 | 1013.8 |
| 20260508024549 | 50 | 0 | 0.0 | 0.0 | 0.00 | 0.89 | 0.81 | 95 | 1013.8 |
| 20260508024047 | 50 | 0 | 0.0 | 0.0 | 0.00 | 0.89 | 0.81 | 95 | 1013.7 |
| 20260508023551 | 50 | 0 | 0.0 | 0.0 | 0.00 | 0.89 | 0.81 | 95 | 1013.7 |
| 20260508023048 | 50 | 0 | 0.0 | 0.0 | 0.00 | 0.89 | 0.81 | 95 | 1013.6 |
| 20260508022547 | 50 | 0 | 0.0 | 0.0 | 0.00 | 0.89 | 0.81 | 95 | 1013.6 |
| 20260508022048 | 51 | 0 | 0.0 | 0.0 | 0.00 | 0.89 | 0.81 | 95 | 1013.3 |
| 20260508021553 | 51 | 0 | 0.0 | 0.0 | 0.00 | 0.89 | 0.81 | 95 | 1013.1 |
| 20260508021047 | 51 | 0 | 0.0 | 0.0 | 0.00 | 0.89 | 0.81 | 95 | 1013.2 |
| 20260508020547 | 51 | 0 | 0.0 | 0.0 | 0.00 | 0.89 | 0.81 | 95 | 1013.1 |
| 20260508020056 | 51 | 0 | 0.0 | 0.0 | 0.00 | 0.89 | 0.81 | 95 | 1013.0 |
| 20260508015545 | 51 | 0 | 0.0 | 0.0 | 0.00 | 0.91 | 0.81 | 94 | 1013.0 |
| 20260508015051 | 52 | 0 | 0.0 | 0.0 | 0.00 | 0.91 | 0.81 | 94 | 1012.9 |
| 20260508014551 | 52 | 0 | 0.0 | 0.0 | 0.00 | 0.91 | 0.81 | 94 | 1012.7 |
| 20260508014047 | 52 | 0 | 0.0 | 0.0 | 0.00 | 0.91 | 0.81 | 94 | 1012.7 |
| 20260508013550 | 52 | 0 | 0.0 | 0.0 | 0.00 | 0.91 | 0.81 | 94 | 1012.6 |
| 20260508013051 | 53 | 0 | 0.0 | 0.0 | 0.00 | 0.91 | 0.81 | 94 | 1012.5 |
| 20260508012549 | 53 | 0 | 0.0 | 0.0 | 0.00 | 0.91 | 0.81 | 94 | 1012.4 |
| 20260508012047 | 53 | 0 | 0.0 | 0.0 | 0.00 | 0.91 | 0.81 | 94 | 1012.4 |
| 20260508011551 | 53 | 0 | 0.0 | 0.0 | 0.00 | 0.91 | 0.81 | 94 | 1012.3 |
| 20260508011048 | 53 | 0 | 0.0 | 0.0 | 0.00 | 0.91 | 0.81 | 94 | 1012.2 |
| 20260508010548 | 54 | 0 | 0.0 | 0.0 | 0.00 | 0.91 | 0.81 | 94 | 1012.1 |
| 20260508010051 | 54 | 0 | 0.0 | 0.0 | 0.00 | 0.91 | 0.81 | 94 | 1011.9 |
| 20260508005545 | 54 | 0 | 0.0 | 0.0 | 0.00 | 0.91 | 0.81 | 94 | 1011.9 |
| 20260508005049 | 54 | 0 | 0.0 | 0.0 | 0.00 | 0.91 | 0.81 | 93 | 1011.9 |
| 20260508004609 | 54 | 0 | 0.0 | 0.0 | 0.00 | 0.91 | 0.81 | 93 | 1011.9 |
| 20260508004046 | 55 | 0 | 0.0 | 0.0 | 0.00 | 0.91 | 0.81 | 93 | 1012.0 |
| 20260508003545 | 55 | 0 | 0.0 | 0.0 | 0.00 | 0.91 | 0.81 | 93 | 1012.0 |
| 20260508003055 | 55 | 0 | 0.0 | 0.0 | 0.00 | 0.91 | 0.81 | 94 | 1011.9 |
| 20260508002547 | 55 | 0 | 0.0 | 0.0 | 0.00 | 0.91 | 0.81 | 94 | 1011.9 |
| 20260508002048 | 55 | 0 | 0.0 | 0.0 | 0.00 | 0.91 | 0.81 | 94 | 1011.8 |
| 20260508001556 | 55 | 0 | 0.0 | 0.0 | 0.00 | 0.91 | 0.81 | 93 | 1011.9 |
| 20260508001048 | 55 | 0 | 0.0 | 0.0 | 0.00 | 0.91 | 0.81 | 93 | 1011.9 |
| 20260508000547 | 56 | 0 | 0.0 | 0.0 | 0.00 | 0.91 | 0.81 | 93 | 1011.9 |
| 20260508000050 | 56 | 0 | 0.0 | 0.0 | 0.00 | 0.91 | 0.81 | 93 | 1011.9 |
| 20260507235548 | 56 | 0 | 0.0 | 0.0 | 0.00 | 0.91 | 0.81 | 93 | 1011.8 |
| 20260507235048 | 56 | 0 | 0.0 | 0.0 | 0.00 | 0.91 | 0.81 | 93 | 1011.8 |
| 20260507234555 | 56 | 0 | 0.0 | 0.0 | 0.00 | 0.91 | 0.81 | 93 | 1011.7 |
| 20260507234048 | 56 | 0 | 0.0 | 0.0 | 0.00 | 0.91 | 0.81 | 93 | 1011.6 |
| 20260507233549 | 56 | 0 | 0.0 | 1.0 | 0.00 | 0.91 | 0.81 | 93 | 1011.5 |
| 20260507233055 | 56 | 0 | 0.0 | 1.0 | 0.00 | 0.91 | 0.81 | 93 | 1011.3 |
| 20260507232546 | 56 | 0 | 0.0 | 1.0 | 0.00 | 0.91 | 0.81 | 93 | 1011.1 |
| 20260507232048 | 56 | 154 | 0.0 | 2.0 | 0.00 | 0.91 | 0.81 | 93 | 1011.0 |
| 20260507231559 | 56 | 0 | 0.0 | 3.0 | 0.00 | 0.91 | 0.81 | 93 | 1011.0 |
| 20260507231047 | 57 | 0 | 0.0 | 3.0 | 0.00 | 0.91 | 0.81 | 93 | 1011.0 |
| 20260507230548 | 56 | 0 | 0.0 | 7.0 | 0.00 | 0.91 | 0.81 | 93 | 1011.0 |
| 20260507225548 | 56 | 0 | 0.0 | 6.0 | 0.00 | 0.91 | 0.81 | 93 | 1010.7 |
| 20260507225051 | 56 | 0 | 0.0 | 2.0 | 0.00 | 0.91 | 0.81 | 93 | 1010.6 |
| 20260507224557 | 56 | 0 | 0.0 | 5.0 | 0.00 | 0.91 | 0.81 | 93 | 1010.5 |
| 20260507224046 | 56 | 137 | 0.0 | 5.0 | 0.00 | 0.91 | 0.81 | 93 | 1010.5 |
| 20260507223547 | 56 | 67 | 0.0 | 5.0 | 0.00 | 0.91 | 0.81 | 93 | 1010.4 |
| 20260507223054 | 56 | 0 | 1.0 | 5.0 | 0.00 | 0.91 | 0.81 | 94 | 1010.1 |
| 20260507222547 | 56 | 150 | 0.0 | 2.0 | 0.00 | 0.91 | 0.81 | 94 | 1010.1 |
| 20260507222048 | 56 | 0 | 0.0 | 2.0 | 0.00 | 0.91 | 0.81 | 93 | 1010.3 |
| 20260507221556 | 56 | 0 | 0.0 | 1.0 | 0.00 | 0.91 | 0.81 | 93 | 1010.4 |
| 20260507221047 | 56 | 0 | 0.0 | 7.0 | 0.00 | 0.91 | 0.81 | 93 | 1010.4 |
| 20260507220545 | 56 | 0 | 1.0 | 7.0 | 0.00 | 0.91 | 0.81 | 93 | 1010.4 |
| 20260507220055 | 56 | 0 | 1.0 | 4.0 | 0.00 | 0.91 | 0.81 | 92 | 1010.3 |
| 20260507215546 | 56 | 104 | 1.0 | 4.0 | 0.00 | 0.91 | 0.81 | 93 | 1010.1 |
| 20260507215048 | 56 | 0 | 1.0 | 3.0 | 0.00 | 0.91 | 0.81 | 93 | 1010.0 |
| 20260507214616 | 56 | 24 | 0.0 | 2.0 | 0.00 | 0.91 | 0.81 | 93 | 1009.9 |
| 20260507214047 | 56 | 160 | 0.0 | 2.0 | 0.00 | 0.91 | 0.81 | 93 | 1010.1 |
| 20260507213547 | 56 | 177 | 0.0 | 2.0 | 0.00 | 0.91 | 0.81 | 93 | 1010.0 |
| 20260507213106 | 56 | 0 | 0.0 | 7.0 | 0.00 | 0.91 | 0.81 | 93 | 1010.0 |
| 20260507212546 | 56 | 0 | 1.0 | 7.0 | 0.00 | 0.91 | 0.81 | 93 | 1009.8 |
| 20260507212050 | 56 | 200 | 1.0 | 7.0 | 0.00 | 0.91 | 0.81 | 93 | 1009.8 |
| 20260507211612 | 56 | 225 | 1.0 | 7.0 | 0.00 | 0.91 | 0.81 | 93 | 1009.8 |
| 20260507211047 | 56 | 77 | 1.0 | 11.0 | 0.01 | 0.91 | 0.81 | 93 | 1009.9 |
| 20260507210547 | 56 | 0 | 2.0 | 11.0 | 0.02 | 0.91 | 0.81 | 92 | 1010.1 |
| 20260507210059 | 57 | 273 | 0.0 | 4.0 | 0.13 | 0.91 | 0.81 | 93 | 1010.0 |
| 20260507205552 | 57 | 0 | 0.0 | 3.0 | 0.29 | 0.91 | 0.81 | 93 | 1009.8 |
| 20260507205046 | 56 | 0 | 1.0 | 7.0 | 0.39 | 0.91 | 0.81 | 93 | 1010.0 |
| 20260507204601 | 56 | 204 | 0.0 | 7.0 | 0.48 | 0.91 | 0.81 | 93 | 1009.8 |
| 20260507204049 | 56 | 178 | 1.0 | 7.0 | 0.48 | 0.91 | 0.81 | 92 | 1010.0 |
| 20260507203546 | 57 | 173 | 0.0 | 4.0 | 0.48 | 0.91 | 0.81 | 92 | 1009.8 |
| 20260507203101 | 57 | 287 | 1.0 | 6.0 | 0.48 | 0.91 | 0.81 | 93 | 1009.7 |
| 20260507202547 | 57 | 0 | 1.0 | 6.0 | 0.48 | 0.91 | 0.81 | 93 | 1009.6 |
| 20260507202049 | 57 | 150 | 0.0 | 6.0 | 0.48 | 0.91 | 0.81 | 94 | 1009.8 |
| 20260507201608 | 56 | 87 | 1.0 | 6.0 | 0.48 | 0.91 | 0.81 | 93 | 1010.1 |
| 20260507201046 | 56 | 149 | 0.0 | 6.0 | 0.47 | 0.90 | 0.80 | 93 | 1010.0 |
| 20260507200545 | 56 | 107 | 1.0 | 6.0 | 0.46 | 0.89 | 0.79 | 92 | 1010.0 |
| 20260507200058 | 56 | 159 | 0.0 | 8.0 | 0.33 | 0.76 | 0.66 | 91 | 1010.0 |
| 20260507195544 | 57 | 134 | 2.0 | 8.0 | 0.19 | 0.62 | 0.52 | 90 | 1010.2 |
| 20260507195044 | 57 | 287 | 2.0 | 8.0 | 0.09 | 0.52 | 0.42 | 89 | 1009.7 |
| 20260507194634 | 58 | 74 | 0.0 | 6.0 | 0.00 | 0.43 | 0.33 | 88 | 1009.7 |
| 20260507194049 | 58 | 289 | 1.0 | 6.0 | 0.00 | 0.43 | 0.33 | 87 | 1009.8 |
| 20260507193547 | 58 | 341 | 1.0 | 9.0 | 0.00 | 0.43 | 0.33 | 88 | 1009.6 |
| 20260507193059 | 58 | 17 | 2.0 | 9.0 | 0.00 | 0.43 | 0.33 | 88 | 1009.5 |
| 20260507192547 | 59 | 299 | 2.0 | 11.0 | 0.00 | 0.43 | 0.33 | 87 | 1009.7 |